#timestamp,LO_Frequency,Hit 
1505091615.2,286047006.4,N
1505091635.0,286047004.9,N
1505091635.9,286047004.9,N
1505091655.8,286047005.7,N
1505091675.6,286047005.3,N
1505091695.4,286047006.2,N
1505091715.2,286047006.5,N
1505091735.1,286047005.3,N
1505091736.0,286047005.3,N
1505091755.8,286047008.8,N
1505091775.6,286047012.4,N
1505091795.5,286047011.3,N
1505091815.3,286047011.2,N
1505091835.1,286047009.1,N
1505091855.9,286047010.6,N
1505091875.7,286047009.6,N
1505091895.5,286047013.0,N
1505091915.4,286047015.6,N
1505091935.2,286047016.0,N
1505091955.0,286047016.6,N
1505091955.9,286047016.6,N
1505091975.8,286047016.2,N
1505091995.6,286047011.9,N
1505092015.4,286047013.6,N
1505092035.3,286047017.9,P
1505092055.1,286047011.8,N
1505092056.0,286047011.8,P
1505092075.8,286047009.9,N
1505092095.7,286047004.9,N
1505092115.5,286047003.8,N
1505092135.3,286047007.3,N
1505092155.1,286047006.4,N
1505092175.9,286047006.6,N
1505092195.7,286047009.9,N
1505092215.5,286047010.7,N
1505092235.4,286047008.5,N
1505092255.2,286047009.2,N
1505092275.0,286047002.6,N
1505092275.9,286047002.6,N
1505092295.8,286046999.8,N
1505092315.6,286047002.1,N
1505092335.4,286046998.5,N
1505092355.3,286046998.6,N
1505092375.1,286047002.4,N
1505092376.0,286047002.4,N
1505092395.8,286047005.4,N
1505092415.7,286047006.5,N
1505092435.5,286047005.0,N
1505092455.3,286047003.0,N
1505092475.2,286047002.3,N
1505092495.9,286047003.3,N
1505092515.7,286047005.2,N
1505092535.5,286047004.8,N
1505092555.4,286047010.8,N
1505092575.2,286047009.2,N
1505092595.0,286047008.2,N
1505092595.9,286047008.2,N
1505092615.8,286047010.6,P
1505092635.6,286047005.2,N
1505092655.4,286047006.0,N
1505092675.3,286047007.2,P
1505092695.1,286047001.4,P
1505092715.9,286047004.0,N
1505092735.7,286047002.3,N
1505092755.5,286047002.6,N
1505092775.3,286047000.3,N
1505092795.2,286046998.2,N
1505092815.0,286046998.6,N
1505092815.9,286046998.6,N
1505092835.7,286046999.0,N
1505092855.6,286047003.9,N
1505092875.4,286046999.7,N
1505092895.2,286046997.3,N
1505092915.1,286047000.6,N
1505092916.0,286047000.6,N
1505092935.8,286046998.5,N
1505092955.6,286047000.3,N
1505092975.5,286046999.3,N
1505092995.3,286046999.4,N
1505093015.1,286046998.6,N
1505093035.8,286047003.9,N
1505093055.7,286047007.0,N
1505093075.5,286047009.3,P
1505093095.4,286047005.7,N
1505093115.2,286047005.1,N
1505093135.0,286047003.6,N
1505093135.9,286047003.6,N
1505093155.7,286046999.9,N
1505093175.6,286046999.8,N
1505093195.4,286046998.9,N
1505093215.2,286046996.9,N
1505093235.1,286046996.9,N
1505093236.0,286046996.9,N
1505093255.8,286047000.4,N
1505093275.6,286046997.0,N
1505093295.5,286047001.0,N
1505093315.3,286047002.3,N
1505093335.1,286047002.3,N
1505093355.9,286047000.3,N
1505093375.7,286047003.8,N
1505093395.5,286047003.9,N
1505093415.4,286046999.6,N
1505093435.2,286046998.6,N
1505093455.0,286047004.3,N
1505093455.9,286047004.3,N
1505093475.7,286047002.0,N
1505093495.6,286046998.5,N
1505093515.4,286046996.5,N
1505093535.2,286046999.0,N
1505093555.1,286046999.4,N
1505093556.0,286046999.4,N
1505093575.8,286046997.6,N
1505093595.6,286046997.3,N
1505093615.5,286047001.2,N
1505093635.3,286047000.5,N
1505093655.1,286046999.0,N
1505093675.9,286046998.8,N
1505093695.7,286047002.7,N
1505093715.5,286047003.2,N
1505093735.4,286047006.3,N
1505093755.2,286047008.5,P
1505093775.0,286047010.7,N
1505093775.9,286047010.7,N
1505093795.8,286047006.9,N
1505093815.6,286047010.8,N
1505093835.4,286047004.5,N
1505093855.3,286047001.3,N
1505093875.1,286047003.2,N
1505093876.0,286047003.2,N
1505093895.8,286047007.2,N
1505093915.7,286047007.0,N
1505093935.5,286047004.6,N
1505093955.3,286047005.9,N
1505093975.2,286047003.5,N
1505093995.9,286047001.7,N
1505094015.7,286047003.0,N
1505094035.5,286047005.0,N
1505094055.4,286047006.9,N
1505094075.2,286047007.9,N
1505094095.0,286047012.4,P
1505094096.0,286047012.4,P
1505094115.8,286047008.7,N
1505094135.6,286047002.9,N
1505094155.4,286047004.9,N
1505094175.3,286047006.8,N
1505094195.1,286047008.7,N
1505094215.8,286047007.0,N
1505094235.7,286047007.9,N
1505094255.5,286047010.5,P
1505094275.3,286047001.6,N
1505094295.2,286047004.2,N
1505094315.0,286047002.8,N
1505094315.9,286047002.8,N
1505094335.7,286046997.5,N
1505094355.6,286046997.0,N
1505094375.4,286046991.8,N
1505094395.2,286046994.0,N
1505094415.1,286046988.9,N
1505094416.0,286046988.9,N
1505094435.8,286046993.0,N
1505094455.6,286046993.6,N
1505094475.5,286046994.9,N
1505094495.3,286046993.6,N
1505094515.1,286046997.0,N
1505094535.9,286046994.9,N
1505094555.7,286046990.8,N
1505094575.5,286046986.9,N
1505094595.3,286046987.7,N
1505094615.2,286046987.0,N
1505094635.0,286046986.1,N
1505094635.9,286046986.1,N
1505094655.7,286046991.2,N
1505094675.6,286046993.9,N
1505094695.4,286046994.8,N
1505094715.2,286046989.0,N
1505094735.1,286046994.3,N
1505094736.0,286046994.3,N
1505094755.8,286046997.7,N
1505094775.6,286046990.2,N
1505094795.5,286046989.1,N
1505094815.3,286046994.7,N
1505094835.1,286046994.0,N
1505094855.9,286046993.0,N
1505094875.7,286046990.6,N
1505094895.5,286046991.0,N
1505094915.3,286046991.1,N
1505094935.2,286046989.0,P
1505094955.0,286047000.0,N
1505094955.9,286047000.0,N
1505094975.8,286046999.5,N
1505094995.6,286047002.2,N
1505095015.4,286047001.5,N
1505095035.2,286047002.7,N
1505095055.1,286046999.2,N
1505095056.0,286046999.2,N
1505095075.8,286046996.8,N
1505095095.6,286046999.2,N
1505095115.5,286047004.2,N
1505095135.3,286047002.7,N
1505095155.1,286047001.9,N
1505095175.9,286047004.0,N
1505095195.7,286047004.6,N
